This is the latest recevied weather packets stored in our database for station/object KI4BIY. If no packets are shown the sender has not sent any weather packets the latest 10 day(s).
| Time | Temp. | Humidity | Pressure | Rain* | Wind** | Luminosity | Snow |
|---|---|---|---|---|---|---|---|
| 1777858314 | 16.11° C | 64% | 1014.4 hPa | 0 mm | - | 0 W/m² | - |
| 1777858011 | 16.11° C | 67% | 1014.3 hPa | 0 mm | - | 0 W/m² | - |
| 1777857709 | 16.11° C | 63% | 1014.4 hPa | 0 mm | - | 0 W/m² | - |
| 1777857405 | 16.67° C | 63% | 1014.2 hPa | 0 mm | - | 0 W/m² | - |
| 1777857102 | 16.67° C | 63% | 1014.4 hPa | 0 mm | - | 0 W/m² | - |
| 1777856798 | 17.22° C | 59% | 1014.4 hPa | 0 mm | - | 0 W/m² | - |
| 1777856494 | 17.22° C | 56% | 1014.2 hPa | 0 mm | - | 0 W/m² | - |
| 1777856191 | 17.78° C | 55% | 1014.3 hPa | 0 mm | - | 0 W/m² | - |
| 1777855887 | 17.78° C | 53% | 1014.1 hPa | 0 mm | - | 0 W/m² | - |
| 1777855586 | 18.33° C | 52% | 1014.2 hPa | 0 mm | - | 0 W/m² | - |
| 1777855283 | 18.89° C | 55% | 1014.5 hPa | 0 mm | - | 0 W/m² | - |
| 1777854979 | 19.44° C | 51% | 1014.3 hPa | 0 mm | - | 0 W/m² | - |
| 1777854675 | 19.44° C | 48% | 1014.5 hPa | 0 mm | - | 2 W/m² | - |
| 1777854372 | 20° C | 47% | 1014.3 hPa | 0 mm | - | 4 W/m² | - |
| 1777854070 | 20° C | 46% | 1014.3 hPa | 0 mm | - | 4 W/m² | - |
| 1777853768 | 20° C | 46% | 1014.6 hPa | 0 mm | - | 6 W/m² | - |
| 1777853463 | 20.56° C | 45% | 1014.3 hPa | 0 mm | - | 7 W/m² | - |
| 1777853161 | 20.56° C | 45% | 1014.4 hPa | 0 mm | - | 9 W/m² | - |
| 1777852858 | 21.11° C | 45% | 1014.4 hPa | 0 mm | - | 9 W/m² | - |
| 1777852556 | 21.67° C | 45% | 1014.3 hPa | 0 mm | - | 10 W/m² | - |
| 1777852253 | 21.67° C | 40% | 1014.4 hPa | 0 mm | - | 10 W/m² | - |
| 1777851950 | 21.67° C | 40% | 1014.5 hPa | 0 mm | - | 11 W/m² | - |
| 1777851649 | 22.22° C | 39% | 1014.3 hPa | 0 mm | - | 12 W/m² | - |
| 1777851345 | 22.22° C | 40% | 1014.5 hPa | 0 mm | - | 13 W/m² | - |
| 1777851041 | 22.22° C | 39% | 1014.6 hPa | 0 mm | - | 14 W/m² | - |
* Rain latest hour (hover to see other rain measurements)
** Current wind speed in m/s (hover to see current wind gust speed)